Location: Bretagne
(43.8474°N, 0.4650°W)
Time: 14:57:38
(UTC+00:00)

Cosmos 2366 rocket - Pass Details

Date: 15 January 2026
Orbit: 955 x 996 km, 82.9° (Epoch: 17 February)

Event Time Altitude Azimuth Distance (km) Brightness Sun altitude
Rises 17:14:58 0° 356° (N) 3,714 6.8 -4.9°
Reaches altitude 10° 17:17:35 10° 1° (N) 2,765 6.1 -5.3°
Maximum altitude 17:23:46 52° 77° (ENE) 1,227 4.2 -6.3°
Drops below altitude 10° 17:29:55 10° 153° (SSE) 2,754 6.3 -7.3°
Sets 17:32:30 0° 158° (SSE) 3,697 7.0 -7.8°
